Morgantown, WV

9:50 AM EDT on May 28, 2017 (GMT -0400)
Morgantown Municipal-Hart

Weather History for KMGW - October, 2014

Change the Weather History Date:

Thursday, October 9, 2014

  Actual Average Record
Temperature  
Mean Temperature 52 °F 56 °F  
Max Temperature 62 °F 67 °F 85 °F (1949)
Min Temperature 42 °F 46 °F 29 °F (1987)
Degree Days  
Heating Degree Days 13 9  
Month to date heating degree days 60 72  
Since 1 July heating degree days 124 169  
Cooling Degree Days 0 1  
Month to date cooling degree days 5 9  
Year to date cooling degree days 968 810  
Growing Degree Days 2 (Base 50)    
Moisture  
Dew Point 44 °F    
Average Humidity 71    
Maximum Humidity 89    
Minimum Humidity 52    
Precipitation  
Precipitation T in 0.09 in 4.20 in (1979)
Month to date precipitation 0.81 0.85  
Year to date precipitation 33.61 33.53  
Sea Level Pressure  
Sea Level Pressure 30.12 in    
Wind  
Wind Speed 4 mph (SSW)    
Max Wind Speed 12 mph    
Max Gust Speed 17 mph    
Visibility 10 miles    
Events Rain    
T = Trace of Precipitation, MM = Missing Value Source: NWS Daily Summary

Daily Weather History Graph

Daily Weather History Graph

Search for Another Location

Airport or City:

Trip Planner

Search our weather history database for the weather conditions in past years. The results will help you decide how hot, cold, wet, or windy it might be!

Date:

Astronomy

Oct. 09, 2014 Rise Set
Actual Time 7:23 AM EDT 6:49 PM EDT
Civil Twilight 6:56 AM EDT 7:16 PM EDT
Nautical Twilight 6:25 AM EDT 7:47 PM EDT
Astronomical Twilight 5:54 AM EDT 8:18 PM EDT
Moon 7:45 PM EDT (10/9) 8:36 AM EDT (10/9)
Length of Visible Light 12h 19m
Length of Day
11h 25m
Full, 98% of the Moon is Illuminated
Oct 9
Full
Oct 15
Last Quarter
Oct 23
New
Oct 30
First Quarter
Nov 6
Full

Hourly Weather History & Observations

Time (EDT) Temp. Windchill Dew Point Humidity Pressure Visibility Wind Dir Wind Speed Gust Speed Precip Events Conditions
12:53 AM 48.9 °F - 42.1 °F 77% 30.10 in 10.0 mi Calm Calm - N/A   Clear
1:53 AM 46.0 °F 43.9 °F 41.0 °F 83% 30.10 in 10.0 mi South 4.6 mph - N/A   Clear
2:53 AM 46.0 °F 43.9 °F 41.0 °F 83% 30.09 in 10.0 mi South 4.6 mph - N/A   Clear
3:53 AM 46.0 °F 44.8 °F 41.0 °F 83% 30.07 in 10.0 mi SSW 3.5 mph - N/A   Clear
4:53 AM 45.0 °F 43.5 °F 39.9 °F 82% 30.08 in 10.0 mi SSW 3.5 mph - N/A   Clear
5:53 AM 43.0 °F - 39.0 °F 86% 30.10 in 10.0 mi Calm Calm - N/A   Clear
6:53 AM 43.0 °F - 37.9 °F 82% 30.12 in 10.0 mi Calm Calm - N/A   Clear
7:53 AM 45.0 °F 43.5 °F 39.9 °F 82% 30.13 in 10.0 mi SSW 3.5 mph - N/A   Clear
8:53 AM 51.1 °F - 42.1 °F 71% 30.12 in 10.0 mi Calm Calm - N/A   Clear
9:53 AM 55.0 °F - 43.0 °F 64% 30.14 in 10.0 mi SSW 8.1 mph - N/A   Overcast
10:53 AM 59.0 °F - 44.1 °F 58% 30.13 in 10.0 mi SW 8.1 mph - N/A   Overcast
11:53 AM 62.1 °F - 44.1 °F 52% 30.12 in 10.0 mi SW 6.9 mph - N/A   Overcast
12:53 PM 60.1 °F - 45.0 °F 57% 30.15 in 10.0 mi SW 5.8 mph - 0.00 in Rain Light Rain
1:53 PM 60.1 °F - 45.0 °F 57% 30.16 in 10.0 mi SW 6.9 mph - 0.00 in   Overcast
2:53 PM 57.9 °F - 46.0 °F 65% 30.15 in 10.0 mi SSW 9.2 mph - N/A   Overcast
3:53 PM 57.9 °F - 42.1 °F 56% 30.14 in 10.0 mi SSW 6.9 mph - N/A   Overcast
4:53 PM 57.0 °F - 43.0 °F 59% 30.14 in 10.0 mi SW 8.1 mph - N/A   Overcast
5:53 PM 55.9 °F - 45.0 °F 67% 30.13 in 10.0 mi SW 10.4 mph - N/A   Mostly Cloudy
6:29 PM 55.9 °F - 46.0 °F 69% 30.12 in 10.0 mi SSW 4.6 mph - N/A   Overcast
6:53 PM 55.9 °F - 46.0 °F 69% 30.12 in 10.0 mi SSW 5.8 mph - N/A   Overcast
7:53 PM 54.0 °F - 46.0 °F 75% 30.12 in 10.0 mi Variable 3.5 mph - N/A   Mostly Cloudy
8:50 PM 53.6 °F - 44.6 °F 72% 30.11 in 10.0 mi Calm Calm - N/A   Mostly Cloudy
8:53 PM 53.1 °F - 45.0 °F 74% 30.12 in 10.0 mi Calm Calm - N/A   Mostly Cloudy
9:03 PM 53.1 °F - 45.0 °F 74% 30.12 in 10.0 mi Calm Calm - N/A   Scattered Clouds
9:14 PM 54.0 °F - 45.0 °F 72% 30.12 in 10.0 mi Calm Calm - N/A   Mostly Cloudy
9:26 PM 54.0 °F - 45.0 °F 72% 30.12 in 10.0 mi Calm Calm - N/A   Overcast
9:53 PM 54.0 °F - 46.9 °F 77% 30.13 in 10.0 mi Calm Calm - N/A   Overcast
10:20 PM 55.0 °F - 46.0 °F 72% 30.13 in 10.0 mi Calm Calm - N/A   Overcast
10:53 PM 54.0 °F - 46.9 °F 77% 30.13 in 10.0 mi Calm Calm - N/A   Overcast
11:20 PM 54.0 °F - 46.0 °F 75% 30.13 in 10.0 mi Calm Calm - N/A   Overcast
11:53 PM 54.0 °F - 46.0 °F 75% 30.12 in 10.0 mi Calm Calm - N/A   Overcast